Location: Beulshausen
(51.8741°N, 9.9455°E)
Time: 13:02:44
(UTC+00:00)

Daily predictions for brighter satellites

Satellite Brightness Start Highest point End
(mag) Time Altitude Azimuth Time Altitude Azimuth Time Altitude Azimuth
Cosmos 2322 Rocket 2.8 19:48:34 10° NNW 19:54:01 46° NE 19:59:25 10° SE
COSMOS 2406 3.8 19:49:48 10° SW 19:55:28 66° NW 20:01:11 10° NNE
BREEZE-M DEB (TANK) 4.1 19:51:54 10° SSW 19:55:36 38° SE 20:06:56 10° ENE
Gblst 52 Del rocket 4.4 19:52:16 10° W 19:58:04 86° S 20:04:39 10° E
Cosmos 304 Rocket 3.8 19:53:46 10° NNW 19:58:35 73° ENE 20:03:22 10° SSE
Cosmos 1933 3.5 19:55:51 10° N 19:59:52 57° ENE 20:03:51 10° SSE
BREEZE-M DEB (TANK) 4.0 19:57:14 10° W 20:00:14 43° SSW 20:08:13 10° SE
Cosmos 1538 Rocket 4.0 19:57:47 10° S 20:02:53 60° ESE 20:08:00 10° NNE
ERS-2 2.2 20:00:39 10° NNE 20:04:19 83° WNW 20:07:57 10° SSW
Resurs 01 Rocket 2.1 20:00:41 10° S 20:05:05 64° WSW 20:09:32 10° NNW
Cosmos 2151 3.1 20:03:07 10° S 20:07:16 57° E 20:11:29 10° NNE
Cosmos 2098 Rocket 2.5 20:05:20 10° S 20:08:29 86° W 20:12:20 10° N
Cosmos 44 Rocket 3.9 20:03:37 10° SW 20:08:49 69° NW 20:14:04 10° NE
Gbstr 26 Del rocket 3.0 20:05:28 10° W 20:09:06 52° SSW 20:12:56 10° SE
Meteor 2-15 Rocket 4.5 20:05:04 10° N 20:11:11 75° ENE 20:17:15 10° SSE
Meteor 2-3 Rocket 4.0 20:07:02 10° S 20:12:31 53° E 20:18:06 10° NNE
CARTOSAT-1 3.7 20:09:49 10° SSE 20:14:05 61° ENE 20:18:21 10° N
Cosmos 2219 Rocket 3.8 20:10:41 10° NNW 20:15:13 24° NE 20:19:44 10° E
Ariane Rocket 4.4 20:15:01 10° SSW 20:19:40 36° W 20:24:22 10° NNW
SL-16 R/B 2.2 20:16:56 10° NNW 20:22:40 84° ENE 20:28:03 12° SSE
Cosmos 1782 2.9 20:22:19 10° N 20:26:20 65° ENE 20:30:03 12° SSE
Cosmos 371 Rocket 4.4 20:22:36 10° NW 20:27:06 40° WSW 20:31:35 10° S
CZ-4C R/B 4.4 20:22:01 10° WNW 20:27:08 31° N 20:33:14 10° NE
COSMOS 2428 4.3 20:24:56 10° NNW 20:29:42 26° NE 20:34:24 10° E
ARIANE 5 R/B 2.7 20:26:51 11° SSE 20:31:11 75° ENE 20:35:38 10° NNW
Cosmos 1271 Rocket 2.9 20:28:56 10° NNW 20:32:56 78° W 20:36:55 10° S
USA 276 3.2 20:33:55 10° W 20:36:44 30° SSW 20:38:32 17° SSE
SPOT 1/Viking Rocket 4.1 20:32:21 10° S 20:37:29 59° W 20:42:39 10° NNW
BREEZE-M DEB (TANK) 3.6 20:35:07 10° W 20:38:04 32° SSW 20:43:14 14° SE
Cosmos 2195 Rocket 4.4 20:33:34 10° S 20:39:41 83° E 20:45:50 10° NNE
Cosmos 1151 Rocket 3.1 20:35:34 10° N 20:39:56 72° ENE 20:43:40 14° SSE
Cosmos 1766 Rocket 3.9 20:37:41 11° SSE 20:41:42 48° E 20:45:56 10° NNE
ATLAS 5 CENTAUR R/B 3.5 20:37:18 10° NW 20:41:53 33° NNE 20:47:13 10° E
Cosmos 1328 Rocket 3.7 20:39:44 10° N 20:44:10 62° ENE 20:47:39 16° SSE
Cosmos 1174 4.3 20:41:27 10° NNW 20:44:19 33° NE 20:46:29 14° ESE
ATLAS 2AS CENTAUR R/B 3.6 20:38:56 10° WSW 20:46:45 62° NW 20:54:18 10° NE
Cosmos 923 Rocket 4.0 20:43:59 10° SSW 20:49:16 67° ESE 20:54:36 10° NNE
ATLAS 3B R/B 3.9 20:43:22 10° NW 20:49:41 35° WSW 20:56:11 10° S
Terra 1.9 20:47:56 16° SSE 20:51:46 70° ENE 20:56:32 10° N
USA 267 4.2 20:47:49 10° ENE 20:52:57 24° SE 20:58:03 10° S
SPOT 5 2.6 20:50:48 14° SSE 20:54:26 82° WSW 20:58:53 10° NNW
Cosmos 1092 Rocket 4.3 20:51:34 10° SSW 20:57:50 74° WNW 21:04:12 10° N
Cosmos 2082 Rocket 3.5 20:52:33 10° WSW 20:57:56 44° NW 21:03:24 10° NNE
Cosmos 2056 Rocket 3.6 20:52:46 10° NNW 20:58:11 81° ENE 21:02:09 18° SSE
NOSS 2-1 (C) 3.9 21:00:50 23° SE 21:01:30 25° ESE 21:04:20 10° ENE
BREEZE-M DEB (TANK) 1.9 21:00:59 10° WSW 21:03:00 40° S 21:03:13 38° SSE
ERS-1 Rocket 3.2 21:00:35 14° S 21:04:54 70° WSW 21:09:57 10° NNW
Cosmos 2360 Rocket 2.2 21:00:22 10° NNW 21:06:03 84° ENE 21:10:08 20° SSE
SL-27 R/B 3.3 21:06:23 24° SE 21:07:45 32° ESE 21:11:00 10° NE
Meteor 2-21 4.5 21:02:37 12° S 21:08:18 68° E 21:14:25 10° NNE
NOSS 2-1 (D) 3.7 21:08:18 26° SSE 21:09:09 29° SE 21:12:09 10° ENE
Cosmos 2026 Rocket 4.3 21:04:28 10° SSW 21:10:49 73° WNW 21:17:06 10° N
GP-B 3.9 21:07:12 10° N 21:11:32 51° W 21:15:50 10° SSW
ISS -1.3 21:14:04 10° WSW 21:15:05 11° SW 21:15:56 10° SSW
Cosmos 2333 Rocket 2.6 21:11:02 10° NNW 21:16:37 57° NE 21:20:38 19° SE
Meteor 1-10 Rocket 4.2 21:13:26 10° NNW 21:19:02 81° ENE 21:22:51 21° SSE
Cosmos 1371 Rocket 4.3 21:14:18 10° NNW 21:19:39 66° WSW 21:23:22 20° S
Cosmos 1812 3.0 21:16:46 10° NNW 21:20:36 64° W 21:23:04 21° S
Cosmos 2112 Rocket 4.0 21:18:36 10° SSW 21:23:54 82° ESE 21:29:12 10° NNE
Cosmos 1680 Rocket 3.5 21:19:07 10° SSW 21:24:24 87° WNW 21:29:42 10° NNE
Cosmos 1500 Rocket 4.2 21:22:34 24° SE 21:24:36 39° E 21:28:45 10° NNE
Cosmos 2322 4.0 21:21:16 10° NNW 21:26:58 63° NE 21:30:49 21° SE
Okean 3 Rocket 4.0 21:24:58 11° SSW 21:29:16 64° WNW 21:33:47 10° N
USA 234 3.4 21:22:58 10° ESE 21:29:30 79° NNE 21:36:06 10° WNW
Cosmos 292 Rocket 3.7 21:26:09 10° NNW 21:30:57 88° WSW 21:33:40 26° SSE
COBE Rocket 4.4 21:29:38 23° SE 21:32:11 46° ENE 21:36:41 10° N
Cosmos 2237 Rocket 3.7 21:32:08 10° NNW 21:37:03 29° NE 21:41:58 10° E
Cosmos 2322 Rocket 3.1 21:32:49 10° NW 21:38:01 39° WSW 21:41:46 17° SSW
Meteor 2-16 Rocket 4.4 21:35:24 19° S 21:39:49 74° E 21:45:55 10° NNE
Cosmos 1408 Rocket 3.5 21:40:12 21° SSW 21:43:05 83° W 21:47:27 10° N
Cosmos 2285 Rocket 4.2 21:37:24 10° NNW 21:43:43 67° ENE 21:47:43 23° SE
Cosmos 1743 Rocket 3.7 21:42:22 29° SSE 21:44:27 59° E 21:48:51 10° NNE
IRIDIUM 106 4.5 21:40:20 10° N 21:45:32 63° E 21:48:18 27° SSE
Cosmos 2315 Rocket 4.1 21:42:06 10° N 21:48:25 73° ENE 21:52:17 25° SSE
Gblst 52 Del rocket 4.5 21:43:50 10° W 21:49:56 77° SSW 21:56:46 11° ESE
Cosmos 2084 3.2 21:49:04 10° SW 21:53:09 79° SE 21:57:22 10° NE
Sich 1 3.9 21:51:50 28° SE 21:53:09 34° E 21:57:05 10° NNE
Cosmos 2266 Rocket 3.9 21:53:30 21° S 21:57:44 86° E 22:04:02 10° N
Cosmos 1862 4.2 21:57:03 16° SW 21:59:57 45° WNW 22:03:49 10° N
Cosmos 2219 Rocket 2.1 21:54:20 10° NNW 21:59:58 89° ENE 22:02:58 29° SSE
SL-16 R/B 4.3 21:59:38 10° NNW 22:03:57 22° NE 22:08:16 10° E
Cosmos 2228 Rocket 3.0 21:59:47 10° N 22:04:14 89° WSW 22:06:05 35° S
H-2A R/B 3.8 22:00:25 10° N 22:04:35 64° WNW 22:07:15 21° SSW
SL-16 R/B 4.1 22:02:07 10° NW 22:06:05 20° W 22:09:55 10° SW
USA 40 PKM 4.2 22:03:14 10° WNW 22:07:02 89° SSW 22:08:39 32° ESE
NOSS 2-1 (E) 2.8 22:05:22 24° SW 22:07:11 89° NW 22:10:47 10° NE
NOSS 3-1 (C) 4.2 22:02:01 10° NW 22:09:17 66° SW 22:14:30 25° SSE
Cosmos 2333 4.4 22:03:58 10° NW 22:09:28 60° WSW 22:12:13 29° S
COSMOS 2455 3.0 22:09:10 26° S 22:12:23 54° ESE 22:18:14 10° NE
COSMOS 2428 2.7 22:08:58 10° NNW 22:14:43 87° WSW 22:17:35 31° SSE
CZ-4C R/B 4.2 22:11:32 10° NW 22:17:25 36° NNE 22:24:24 10° E
Cosmos 1655 Rocket 4.3 22:12:44 17° SSW 22:17:43 66° WNW 22:24:07 10° N
Cosmos 1602 4.2 22:17:48 39° SE 22:18:32 44° E 22:22:13 10° NNE
Cosmos 1515 3.7 22:16:05 10° N 22:19:52 70° ENE 22:20:48 47° SE
Cosmos 1862 Rocket 4.4 22:17:13 10° N 22:21:20 39° ENE 22:22:56 28° ESE
USA 229 DEB 3.9 22:16:19 10° NW 22:23:34 78° SW 22:28:16 26° SSE
USA 229 3.9 22:16:25 10° NW 22:23:40 78° SW 22:28:23 26° SSE
Spot 4 3.8 22:21:45 35° S 22:23:48 78° WSW 22:28:39 10° NNW
ATLAS 5 CENTAUR R/B 2.2 22:21:41 10° NW 22:27:04 88° SW 22:30:39 27° SE
Terra 3.9 22:26:50 10° SW 22:30:01 18° W 22:33:20 10° NW
Cosmos 1452 Rocket 3.9 22:25:31 10° NNW 22:30:38 54° WSW 22:32:49 32° SSW
Cosmos 1707 Rocket 3.5 22:26:29 10° N 22:30:53 80° E 22:32:18 42° SSE
COSMOS 2487 2.2 22:31:49 62° SSW 22:32:20 88° ESE 22:35:46 10° NNE
ALOS 2 2.5 22:33:57 41° SSE 22:35:27 84° ENE 22:39:53 10° NNW
USA 267 3.2 22:30:16 10° ENE 22:36:48 67° SE 22:43:19 10° SW
Nadezhda 1 Rocket 4.4 22:34:41 10° N 22:41:01 56° ENE 22:44:26 27° SE
NOSS 3-1 (A) 4.1 22:36:42 10° NW 22:43:58 65° SW 22:48:48 28° SSE
Cosmos 1666 4.0 22:44:25 26° ESE 22:44:55 27° E 22:48:13 10° NNE
SL-08 ROCKET BODY 4.5 22:44:13 33° SSE 22:47:02 67° E 22:53:10 10° NNE
Cosmos 546 4.5 22:43:27 10° W 22:47:24 76° S 22:50:11 19° E
Cosmos 2360 Rocket 4.0 22:45:27 10° NW 22:49:21 20° W 22:51:53 15° SW
Cosmos 1805 Rocket 4.1 22:49:12 30° SW 22:51:10 55° WNW 22:55:33 10° N
NOSS 2-1 (C) 4.5 22:48:42 10° WSW 22:51:46 36° NNW 22:55:10 10° NE
NOSS 2-2 (D) 4.4 22:50:40 10° NW 22:55:35 74° NE 23:00:43 18° SE
Cosmos 1110 Rocket 4.2 22:51:28 10° NNW 22:56:44 60° WSW 22:58:40 37° S
Meteor 1-20 Rocket 4.3 22:54:51 30° SSW 22:57:44 74° WNW 23:03:28 10° N
Cosmos 1980 3.7 22:52:52 10° NNW 22:58:36 85° ENE 23:01:19 32° SSE
Cosmos 2333 Rocket 3.3 22:55:44 10° NW 23:00:37 31° WSW 23:02:38 24° SW
Cosmos 1331 Rocket 4.2 22:56:59 10° NNW 23:02:10 60° WSW 23:03:58 38° S
Nimbus 7 Rocket 4.4 23:05:19 10° NNE 23:11:21 71° ESE 23:14:01 35° S
USA 234 3.5 23:10:02 31° SSE 23:12:50 49° SW 23:19:10 10° WNW
SL-16 R/B 4.4 23:08:33 10° ESE 23:13:16 24° NE 23:17:59 10° N
NOSS 0 Rocket 4.1 23:07:19 10° NW 23:13:27 60° WSW 23:16:01 34° S
Cosmos 1340 Rocket 3.6 23:13:35 33° ESE 23:14:08 35° E 23:17:45 10° NNE
Okean 1-7 3.5 23:13:22 10° N 23:17:32 49° ENE 23:18:54 35° SE
Cosmos 2297 Rocket 2.7 23:17:12 34° SSE 23:18:58 44° ESE 23:24:19 10° NE
Cosmos 2237 Rocket 2.2 23:16:00 10° NNW 23:21:41 73° WSW 23:24:02 36° SSE
Lacrosse 5 2.6 23:21:59 32° SE 23:22:10 32° SE 23:26:39 10° ENE
Cosmos 2084 Rocket 3.5 23:19:21 10° NW 23:23:28 59° SW 23:24:07 52° S
Cosmos 2242 Rocket 3.9 23:19:18 10° N 23:23:40 58° ENE 23:25:08 37° SE
NOSS 2-2 (E) 4.3 23:19:32 10° NW 23:24:42 71° SW 23:28:32 28° SSE
Cosmos 1500 3.6 23:26:57 44° SW 23:27:49 56° WNW 23:31:38 10° N
Cosmos 1470 Rocket 3.4 23:29:03 50° S 23:30:10 88° E 23:34:32 10° N
Cosmos 2227 Rocket 2.8 23:28:53 32° SSE 23:30:41 41° ESE 23:35:58 10° NE
Sich 1 4.5 23:28:46 20° WSW 23:30:51 30° WNW 23:34:43 10° N
Cosmos 1633 Rocket 3.5 23:33:06 35° SW 23:34:35 51° WNW 23:38:51 10° N
Cosmos 494 Rocket 4.5 23:33:16 25° SW 23:36:08 53° WNW 23:41:11 10° NNE
Cosmos 1933 Rocket 3.6 23:35:34 46° SSE 23:36:48 70° E 23:41:16 10° NNE
Cosmos 1666 Rocket 4.5 23:37:06 28° WSW 23:38:50 40° WNW 23:43:04 10° N
Cosmos 2219 Rocket 3.9 23:39:29 10° WNW 23:43:09 18° W 23:44:40 16° WSW
Meteor 1-11 Rocket 4.1 23:41:19 31° SSE 23:43:36 51° E 23:48:56 10° NNE
NOSS 2-2 (C) 4.4 23:43:50 10° NW 23:48:55 61° SW 23:52:23 29° SSE
SL-16 R/B 2.3 23:43:23 10° NNW 23:49:05 74° ENE 23:52:42 23° SE
Cosmos 2263 Rocket 4.4 23:46:59 10° ESE 23:49:18 13° E 23:51:38 10° ENE
Cosmos 1992 Rocket 4.0 23:44:22 10° NNW 23:49:38 85° ENE 23:52:06 32° SSE
PSLV R/B 3.7 23:45:45 10° NNE 23:50:34 86° ESE 23:52:12 42° S
Cosmos 1269 Rocket 3.9 23:50:05 38° SSW 23:52:12 87° ESE 23:57:32 10° NNE
Resurs 1-4 Rocket 3.9 23:48:24 10° NE 23:52:22 21° E 23:55:13 14° SE
ADEOS Rocket 4.5 23:48:27 10° ESE 23:53:02 28° ENE 23:57:39 10° N
